Location: Larrial
(48.2758°N, 4.5331°W)
Time: 17:48:54
(UTC+00:00)

GEOS 3 Rocket - Pass Details

Date: 09 April 2020
Orbit: 774 x 845 km, 115.0° (Epoch: 25 May)

Event Time Altitude Azimuth Distance (km) Brightness Sun altitude
Exits shadow 19:27:23 - 142° (SE) 3,279 6.3 -5.1°
Rises 19:27:24 0° 142° (SE) 3,275 6.3 -5.1°
Reaches altitude 10° 19:29:39 10° 144° (SE) 2,358 5.5 -5.5°
Maximum altitude 19:34:46 77° 230° (SW) 830 3.8 -6.3°
Drops below altitude 10° 19:40:02 10° 318° (NW) 2,418 7.2 -7.1°
Sets 19:42:23 0° 320° (NW) 3,364 8.0 -7.4°
